STARLINK-2239 (48017 NORAD) Tracking and Keplerian Element Data

This shows tracking and keplerian element data for the satellite.

Feedback or suggestion? Click here.




ElementValue
Catalog48017
NameSTARLINK-2239
Epoch Orbit195
Epoch Day173.91668981
Epoch Year2021
RAAN126.456
Inclination53.0513
Eccentricity0.0001503
Argument of Perigee71.4736
Mean Anonmoly250.5037
Mean Motion15.0644961
Decay Rate-0.0008742
L11 48017U 21024AS 21173.91668981 -.00087420 00000-0 -59145-2 0 9990
L22 48017 53.0513 126.4560 0001503 71.4736 250.5037 15.06449610 1953

Live tracking and technical data element details for STARLINK-2239 (NORAD 48017). STARLINK-2239 can be tracked NOW for your location showing map with azimuth and elevation plus other details from your city location.

Track the satellite on the map from your city or location and see movement details for azimuth, elevation, latitude, longitude, range, height, and movement on the map or in text.







IsCatalogInMostPopularTable: catalog: 48017, numindb: 38
Update: records affected: 1



GetName: 48017 STARLINK-2239

Hit Count: updated at: Thu, 24 Jun 2021 03:47:18 GMT